Mukilteo, WA

1:28 AM PST on February 07, 2016 (GMT -0800)
Snohomish County

Weather History for KPAE - October, 2012

Change the Weather History Date:

Sunday, October 28, 2012

  Actual Average Record
Temperature  
Mean Temperature 54 °F -  
Max Temperature 57 °F 56 °F 68 °F (1968)
Min Temperature 50 °F 39 °F 22 °F (1971)
Degree Days  
Heating Degree Days 12    
Growing Degree Days 4 (Base 50)    
Moisture  
Dew Point 50 °F    
Average Humidity 86    
Maximum Humidity 94    
Minimum Humidity 70    
Precipitation  
Precipitation 0.19 in - - ()
Sea Level Pressure  
Sea Level Pressure 29.89 in    
Wind  
Wind Speed 7 mph (South)    
Max Wind Speed 15 mph    
Max Gust Speed 25 mph    
Visibility 9 miles    
Events Rain    
Averages and records for this station are not official NWS values.
T = Trace of Precipitation, MM = Missing Value Source: NWS Daily Summary

Daily Weather History Graph

Daily Weather History Graph

Search for Another Location

Airport or City:

Trip Planner

Search our weather history database for the weather conditions in past years. The results will help you decide how hot, cold, wet, or windy it might be!

Date:

Astronomy

Oct. 28, 2012 Rise Set
Actual Time 7:48 AM PDT 5:56 PM PDT
Civil Twilight 7:16 AM PDT 6:28 PM PDT
Nautical Twilight 6:40 AM PDT 7:04 PM PDT
Astronomical Twilight 6:04 AM PDT 7:40 PM PDT
Moon 5:17 PM PDT (10/28) 6:45 AM PDT (10/28)
Length of Visible Light 11h 11m
Length of Day
10h 07m
Waxing Gibbous, 99% of the Moon is Illuminated
Oct 28
Waxing Gibbous
Oct 29
Full
Nov 6
Last Quarter
Nov 13
New
Nov 20
First Quarter

Hourly Weather History & Observations

Time (PDT) Temp. Dew Point Humidity Pressure Visibility Wind Dir Wind Speed Gust Speed Precip Events Conditions
12:53 AM 57.0 °F 54.0 °F 89% 29.82 in 10.0 mi SSW 15.0 mph 25.3 mph N/A   Overcast
1:53 AM 57.0 °F 54.0 °F 89% 29.85 in 10.0 mi SSW 11.5 mph - N/A   Overcast
2:53 AM 55.0 °F 53.1 °F 93% 29.88 in 10.0 mi WSW 3.5 mph - N/A   Overcast
3:53 AM 55.0 °F 53.1 °F 93% 29.91 in 4.0 mi Calm Calm - 0.00 in Rain Light Rain
4:16 AM 53.6 °F 51.8 °F 94% 29.91 in 10.0 mi WSW 3.5 mph - 0.00 in   Overcast
4:53 AM 54.0 °F 52.0 °F 93% 29.92 in 6.0 mi Calm Calm - 0.00 in   Overcast
5:50 AM 53.6 °F 51.8 °F 94% 29.92 in 10.0 mi East 3.5 mph - 0.00 in   Overcast
5:53 AM 53.1 °F 51.1 °F 93% 29.92 in 10.0 mi East 3.5 mph - 0.00 in   Overcast
6:41 AM 53.6 °F 51.8 °F 94% 29.92 in 10.0 mi Calm Calm - N/A   Overcast
6:53 AM 54.0 °F 50.0 °F 86% 29.92 in 10.0 mi SSE 4.6 mph - N/A   Overcast
7:51 AM 51.8 °F 48.2 °F 88% 29.92 in 10.0 mi South 6.9 mph - N/A   Scattered Clouds
7:53 AM 50.0 °F 48.0 °F 93% 29.93 in 10.0 mi South 6.9 mph - N/A   Scattered Clouds
8:03 AM 51.8 °F 48.2 °F 88% 29.92 in 10.0 mi South 3.5 mph - N/A   Mostly Cloudy
8:28 AM 53.6 °F 48.2 °F 82% 29.93 in 10.0 mi South 8.1 mph - N/A   Scattered Clouds
8:53 AM 53.1 °F 48.0 °F 83% 29.92 in 10.0 mi South 8.1 mph - N/A   Scattered Clouds
9:53 AM 53.1 °F 50.0 °F 89% 29.94 in 10.0 mi SSE 8.1 mph - N/A   Partly Cloudy
10:53 AM 55.0 °F 50.0 °F 83% 29.94 in 10.0 mi South 9.2 mph - 0.01 in   Clear
11:29 AM 55.4 °F 48.2 °F 77% 29.94 in 10.0 mi South 9.2 mph - N/A   Mostly Cloudy
11:53 AM 55.9 °F 48.9 °F 77% 29.94 in 10.0 mi SSW 8.1 mph - N/A   Mostly Cloudy
12:53 PM 57.0 °F 48.0 °F 72% 29.94 in 10.0 mi South 8.1 mph - N/A   Overcast
1:53 PM 57.0 °F 48.0 °F 72% 29.93 in 10.0 mi South 6.9 mph - N/A   Overcast
2:53 PM 57.9 °F 48.0 °F 70% 29.92 in 10.0 mi South 8.1 mph - N/A   Mostly Cloudy
3:10 PM 57.2 °F 48.2 °F 72% 29.91 in 10.0 mi SSW 5.8 mph - N/A   Mostly Cloudy
3:53 PM 57.0 °F 48.9 °F 74% 29.91 in 10.0 mi South 8.1 mph - N/A   Scattered Clouds
4:53 PM 57.0 °F 48.9 °F 74% 29.89 in 10.0 mi South 5.8 mph - N/A   Mostly Cloudy
5:09 PM 55.4 °F 50.0 °F 82% 29.89 in 10.0 mi SSE 6.9 mph - N/A   Mostly Cloudy
5:53 PM 55.9 °F 50.0 °F 80% 29.88 in 10.0 mi South 5.8 mph - N/A   Mostly Cloudy
6:09 PM 55.4 °F 50.0 °F 82% 29.87 in 10.0 mi South 5.8 mph - 0.00 in Rain Light Rain
6:17 PM 55.4 °F 51.8 °F 88% 29.87 in 10.0 mi South 5.8 mph - 0.00 in Rain Light Rain
6:41 PM 55.4 °F 51.8 °F 88% 29.87 in 10.0 mi South 4.6 mph - 0.00 in Rain Light Rain
6:53 PM 55.0 °F 51.1 °F 86% 29.87 in 10.0 mi SSE 6.9 mph - 0.00 in Rain Light Rain
7:22 PM 55.4 °F 51.8 °F 88% 29.87 in 7.0 mi SSE 6.9 mph - 0.01 in Rain Light Rain
7:53 PM 54.0 °F 52.0 °F 93% 29.86 in 4.0 mi South 9.2 mph - 0.05 in Rain Light Rain
8:02 PM 53.6 °F 50.0 °F 88% 29.86 in 5.0 mi SSW 9.2 mph - 0.01 in Rain Light Rain
8:10 PM 53.6 °F 50.0 °F 88% 29.85 in 7.0 mi SW 8.1 mph - 0.02 in Rain Light Rain
8:53 PM 52.0 °F 48.9 °F 89% 29.83 in 7.0 mi South 4.6 mph - 0.04 in Rain Light Rain
9:53 PM 52.0 °F 48.9 °F 89% 29.81 in 7.0 mi Calm Calm - 0.06 in Rain Light Rain
10:43 PM 51.8 °F 48.2 °F 88% 29.79 in 9.0 mi Calm Calm - 0.01 in   Overcast
10:53 PM 52.0 °F 48.9 °F 89% 29.79 in 8.0 mi South 3.5 mph - 0.01 in   Overcast
11:01 PM 51.8 °F 48.2 °F 88% 29.78 in 4.0 mi SSE 3.5 mph - 0.00 in Rain Light Rain
11:53 PM 51.1 °F 48.9 °F 92% 29.77 in 4.0 mi South 4.6 mph - 0.02 in   Overcast